DELTA 1 DEB

Satellite information

Favourite Embed

Satellite Type and Status

DEBRISIN ORBIT

Key statistics

Satellite DELTA 1 DEB at a glance.

Uptime

19343

Days in orbit

Revolutions

≈ 14.7

Per day

Orbit

SSO

Sun Synchronous Orbit

Inclination

98.5

Latest

Satellite identification and parameters

Extended collection of information and parameters for DELTA 1 DEB.

Object identification

Identified? True

Debris? True

Object name: DELTA 1 DEB

International designator: 1972-058KA

Object number (NORAD): 42567

Object ID (CCSDS): 42567

Country: UNITED STATES OF AMERICA (US)

Current information (Y/N): Y

RCS size: SMALL

Orbital parameters

Period: 98.202 minutes

Inclination: 98.4796 deg

SMA: 7050.849 km

Apoapsis: 752.736 km

Periapsis: 592.692 km

RAAN: 304.9017 deg

Eccentricy: 0.0113493

Argument of periapsis: 6.9625 deg

Mean anomaly: 353.3122 deg

Mean motion: 14.66360177 rev/day

Mean motion (dot): 0.00000552 rev/day2

B* drag term: 0.00010063 1/REarth

Two-line elements (TLE)

Creation date: July 4, 2025, 6:39 p.m.

Reference frame: TEME

Reference center: EARTH

Epoch: July 4, 2025, 7 a.m. UTC

TLE line 0: 0 DELTA 1 DEB

TLE line 1: 1 42567U 72058KA 25185.29219901 .00000552 00000-0 10063-3 0 9995

TLE line 2: 2 42567 98.4796 304.9017 0113493 6.9625 353.3122 14.66360177619693

Live tracking on map

Real-time ground track for satellite DELTA 1 DEB.

In-orbit conjunctions

A list of the most updated potential collisions computed for object DELTA 1 DEB.

Target Orbit TCA Probability of collision Miss distance Type
COSMOS 44 LEO 2024-11-04 12:29:52 0.0001794924 206.0 (m) PAYLOAD

Associated space launch

Earth observation satellite

DELTA 1 DEB was lifted into orbit during the mission ‘Delta 0900 | Landsat 1’, on board a Delta 0900 space rocket.

The launch took place on July 23, 1972, 6:06 p.m. from Space Launch Complex 2W.

For more information about the launch, click the button.

Launch to space Delta 0900 | Landsat 1
Delta 0900 | Landsat 1

Agency: N/A

Status: Launch Successful

Launch date: July 23, 1972, 6:06 p.m. UTC

Rocket: Delta 0900

Launch pad: Space Launch Complex 2W

Location: Vandenberg SFB, CA, USA

...

Latest news about this satellite

There are no fresh news available about this satellite. Check back as we update our databases every day.


Newsletter sign-up

Weekly statistics, charts and insights to help you stay on top of the space industry.